Date String (YYYY-MM-DD hh:mm:ss) UTC,Instrument flags,absolute air pressure of the measurement (hPa),sample flow rate (lpm),inlet stack bypass flow (lpm),air temperature of the measurement (°C),ambient temperature measured by the external sensor (°C),aerosol sample conditioner tube jacket temperature (°C),OPC LED temperature (°C),internal box temperature (°C),relative humidity of the measurement (%),span deviation,mass concentration of particles derived from Lorenz-Mie calculation of OPC scattering (μg/m³),mass concentration of particles derived from Lorenz-Mie calculation of OPC scattering (μg/m³),mass concentration of particles derived from Lorenz-Mie calculation of OPC scattering (μg/m³)
DateTimeUTC,F1_M11,P_M11,Q1_M11,Q2_M11,T1_M11,T2_M11,T3_M11,T4_M11,T5_M11,U1_M11,ZSPAN_M11,X0_M11,X2_M11,X1_M11
2024-01-08 07:00:00,SystemResetWarning,0817.2,4.99,000.00,019.1,018.4,000.0,027.5,020.3,13.0,0000.0,0004.32,0002.41,0001.87
2024-01-08 07:01:00,SystemResetWarning,0817.2,4.99,000.00,019.1,018.4,000.0,027.5,020.3,13.0,0000.0,0004.38,0002.43,0001.90
2024-01-08 07:02:00,SystemResetWarning,0817.2,5.00,000.00,019.1,018.4,000.0,027.5,020.3,13.0,0000.0,0004.40,0002.47,0001.94
2024-01-08 07:03:00,SystemResetWarning,0817.2,5.00,000.00,019.1,018.4,000.0,027.5,020.3,13.0,0000.0,0004.07,0002.47,0001.97
2024-01-08 07:04:00,SystemResetWarning,0817.2,5.01,000.00,019.1,018.4,000.0,027.5,020.3,13.0,0000.0,0003.75,0002.47,0002.01
2024-01-08 07:05:00,SystemResetWarning,0817.2,5.01,000.00,019.1,018.4,000.0,027.5,020.4,13.0,0000.0,0003.78,0002.52,0002.04
2024-01-08 07:06:00,SystemResetWarning,0817.3,5.00,000.00,019.1,018.4,000.0,027.5,020.4,13.1,0000.0,0003.91,0002.58,0002.07
2024-01-08 07:07:00,SystemResetWarning,0817.3,4.99,000.00,019.1,018.4,000.0,027.5,020.4,13.1,0000.0,0003.96,0002.62,0002.11
2024-01-08 07:08:00,SystemResetWarning,0817.3,5.00,000.00,019.1,018.5,000.0,027.5,020.4,13.1,0000.0,0003.91,0002.62,0002.14
2024-01-08 07:09:00,SystemResetWarning,0817.3,5.00,000.00,019.1,018.5,000.0,027.5,020.4,13.1,0000.0,0003.79,0002.63,0002.17
2024-01-08 07:10:00,SystemResetWarning,0817.3,5.01,000.00,019.1,018.5,000.0,027.4,020.4,13.1,0000.0,0003.92,0002.70,0002.21
2024-01-08 07:11:00,SystemResetWarning,0817.3,5.01,000.00,019.1,018.5,000.0,027.4,020.4,13.1,0000.0,0003.92,0002.71,0002.23
2024-01-08 07:12:00,SystemResetWarning,0817.3,4.99,000.00,019.1,018.5,000.0,027.4,020.4,13.1,0000.0,0004.21,0002.72,0002.24
2024-01-08 07:13:00,SystemResetWarning,0817.3,4.99,000.00,019.1,018.5,000.0,027.4,020.3,13.1,0000.0,0004.72,0002.74,0002.26
2024-01-08 07:14:00,SystemResetWarning,0817.3,5.01,000.00,019.1,018.4,000.0,027.4,020.3,13.1,0000.0,0004.80,0002.76,0002.29
2024-01-08 07:15:00,SystemResetWarning,0817.3,5.00,000.00,019.1,018.4,000.0,027.4,020.3,13.1,0000.0,0005.13,0002.78,0002.30
2024-01-08 07:16:00,SystemResetWarning,0817.3,5.00,000.00,019.1,018.4,000.0,027.4,020.3,13.1,0000.0,0005.63,0002.80,0002.31
2024-01-08 07:17:00,SystemResetWarning,0817.3,5.00,000.00,019.1,018.4,000.0,027.4,020.2,13.1,0000.0,0005.64,0002.83,0002.34
2024-01-08 07:18:00,SystemResetWarning,0817.3,5.00,000.00,019.1,018.4,000.0,027.4,020.2,13.1,0000.0,0005.74,0002.85,0002.36
2024-01-08 07:19:00,SystemResetWarning,0817.3,5.01,000.00,019.1,018.4,000.0,027.4,020.2,13.2,0000.0,0005.82,0002.87,0002.38
2024-01-08 07:20:00,SystemResetWarning,0817.3,5.01,000.00,019.1,018.4,000.0,027.4,020.2,13.2,0000.0,0005.91,0002.92,0002.43
2024-01-08 07:21:00,SystemResetWarning,0817.3,5.00,000.00,019.0,018.3,000.0,027.4,020.1,13.2,0000.0,0005.95,0002.95,0002.46
2024-01-08 07:22:00,SystemResetWarning,0817.4,5.01,000.00,019.0,018.3,000.0,027.4,020.1,13.2,0000.0,0005.95,0002.99,0002.49
2024-01-08 07:23:00,SystemResetWarning,0817.4,4.99,000.00,019.0,018.3,000.0,027.4,020.1,13.2,0000.0,0005.78,0003.02,0002.52
2024-01-08 07:24:00,SystemResetWarning,0817.4,4.99,000.00,019.0,018.3,000.0,027.4,020.2,13.3,0000.0,0005.19,0003.07,0002.55
2024-01-08 07:25:00,SystemResetWarning,0817.4,5.00,000.00,019.0,018.3,000.0,027.4,020.1,13.3,0000.0,0005.40,0003.13,0002.60
2024-01-08 07:26:00,SystemResetWarning,0817.4,5.01,000.00,019.0,018.3,000.0,027.4,020.1,13.3,0000.0,0005.28,0003.17,0002.66
2024-01-08 07:27:00,SystemResetWarning,0817.4,5.01,000.00,019.0,018.2,000.0,027.4,020.1,13.3,0000.0,0005.81,0003.17,0002.70
2024-01-08 07:28:00,SystemResetWarning,0817.4,5.00,000.00,019.0,018.2,000.0,027.4,020.1,13.3,0000.0,0005.82,0003.18,0002.76
2024-01-08 07:29:00,SystemResetWarning,0817.3,4.99,000.00,019.0,018.2,000.0,027.4,020.1,13.3,0000.0,0005.74,0003.20,0002.81
2024-01-08 07:30:00,SystemResetWarning,0817.4,5.00,000.00,019.0,018.2,000.0,027.4,020.1,13.3,0000.0,0005.87,0003.25,0002.87
2024-01-08 07:31:00,SystemResetWarning,0817.4,5.00,000.00,019.0,018.2,000.0,027.3,020.1,13.3,0000.0,0006.00,0003.29,0002.91
2024-01-08 07:32:00,SystemResetWarning,0817.4,5.00,000.00,018.9,018.2,000.0,027.4,020.1,13.4,0000.0,0006.07,0003.32,0002.95
2024-01-08 07:33:00,SystemResetWarning,0817.3,5.00,000.00,018.9,018.2,000.0,027.3,020.1,13.4,0000.0,0005.96,0003.32,0003.00
2024-01-08 07:34:00,SystemResetWarning,0817.3,5.01,000.00,018.9,018.2,000.0,027.3,020.1,13.4,0000.0,0005.92,0003.33,0003.03
2024-01-08 07:35:00,SystemResetWarning,0817.3,5.01,000.00,018.9,018.2,000.0,027.3,020.1,13.4,0000.0,0006.21,0003.33,0003.06
2024-01-08 07:36:00,SystemResetWarning,0817.3,5.01,000.00,018.9,018.2,000.0,027.3,020.1,13.4,0000.0,0006.37,0003.30,0003.07
2024-01-08 07:37:00,SystemResetWarning,0817.4,4.99,000.00,018.9,018.2,000.0,027.3,020.1,13.5,0000.0,0006.28,0003.29,0003.07
2024-01-08 07:38:00,SystemResetWarning,0817.3,5.00,000.00,018.9,018.2,000.0,027.3,020.1,13.5,0000.0,0005.15,0003.30,0003.08
2024-01-08 07:39:00,SystemResetWarning,0817.4,5.00,000.00,018.9,018.2,000.0,027.3,020.1,13.5,0000.0,0005.25,0003.32,0003.08
2024-01-08 07:40:00,SystemResetWarning,0817.4,5.00,000.00,018.9,018.2,000.0,027.3,020.1,13.5,0000.0,0005.52,0003.35,0003.07
2024-01-08 07:41:00,SystemResetWarning,0817.4,4.99,000.00,018.9,018.2,000.0,027.3,020.1,13.6,0000.0,0005.47,0003.32,0003.03
2024-01-08 07:42:00,SystemResetWarning,0817.4,5.00,000.00,018.9,018.2,000.0,027.3,020.1,13.6,0000.0,0005.47,0003.30,0003.01
2024-01-08 07:43:00,SystemResetWarning,0817.4,5.00,000.00,018.9,018.2,000.0,027.3,020.1,13.6,0000.0,0005.55,0003.29,0003.00
2024-01-08 07:44:00,SystemResetWarning,0817.4,5.00,000.00,018.9,018.3,000.0,027.3,020.1,13.6,0000.0,0005.70,0003.31,0002.99
2024-01-08 07:45:00,SystemResetWarning,0817.4,5.01,000.00,018.9,018.3,000.0,027.3,020.1,13.7,0000.0,0006.07,0003.33,0002.98
2024-01-08 07:46:00,SystemResetWarning,0817.4,5.00,000.00,018.9,018.2,000.0,027.3,020.1,13.7,0000.0,0005.69,0003.32,0002.98
2024-01-08 07:47:00,SystemResetWarning,0817.4,4.99,000.00,018.9,018.2,000.0,027.3,020.2,13.8,0000.0,0005.51,0003.36,0002.99
2024-01-08 07:48:00,SystemResetWarning,0817.4,4.99,000.00,018.9,018.3,000.0,027.3,020.1,13.8,0000.0,0005.79,0003.39,0003.03
2024-01-08 07:49:00,SystemResetWarning,0817.4,5.00,000.00,018.9,018.2,000.0,027.3,020.1,13.8,0000.0,0005.86,0003.41,0003.05
2024-01-08 07:50:00,SystemResetWarning,0817.4,5.00,000.00,018.9,018.2,000.0,027.3,020.1,13.9,0000.0,0005.72,0003.39,0003.06
2024-01-08 07:51:00,SystemResetWarning,0817.4,5.00,000.00,018.9,018.3,000.0,027.3,020.1,13.9,0000.0,0007.37,0003.38,0003.06
2024-01-08 07:52:00,SystemResetWarning,0817.4,5.00,000.00,018.9,018.3,000.0,027.3,020.2,13.9,0000.0,0007.57,0003.37,0003.07
2024-01-08 07:53:00,SystemResetWarning,0817.4,5.01,000.00,018.9,018.3,000.0,027.3,020.2,14.0,0000.0,0007.57,0003.38,0003.09
2024-01-08 07:54:00,SystemResetWarning,0817.4,4.99,000.00,018.9,018.3,000.0,027.3,020.2,14.0,0000.0,0007.51,0003.37,0003.09
2024-01-08 07:55:00,SystemResetWarning,0817.4,4.99,000.00,019.0,018.3,000.0,027.3,020.2,14.0,0000.0,0008.34,0003.38,0003.09
2024-01-08 07:56:00,SystemResetWarning,0817.4,5.01,000.00,019.0,018.3,000.0,027.3,020.2,14.1,0000.0,0008.31,0003.36,0003.08
2024-01-08 07:57:00,SystemResetWarning,0817.4,5.00,000.00,019.0,018.3,000.0,027.3,020.2,14.1,0000.0,0008.34,0003.40,0003.10
2024-01-08 07:58:00,SystemResetWarning,0817.4,5.01,000.00,019.0,018.3,000.0,027.3,020.2,14.1,0000.0,0008.32,0003.39,0003.11
2024-01-08 07:59:00,SystemResetWarning,0817.4,5.00,000.00,019.0,018.3,000.0,027.3,020.2,14.2,0000.0,0008.29,0003.37,0003.10
